Regional Weather Roundup
Issued by NWS

Home | Current Version | Previous Version | Text Only | Print | Product List | Glossary On
Versions: 1 2 3 4 5 6 7 8 9 10 11 12 13 14 15 16 17 18 19 20 21 22 23 24 25 26 27
000
ASUS45 KBOU 111410
RWRCO

WEATHER ROUNDUP FOR COLORADO
NATIONAL WEATHER SERVICE DENVER/BOULDER CO
800 AM MDT TUE MAY 11 2021

NOTE: "FAIR" INDICATES FEW OR NO CLOUDS BELOW 12000 FEET WITH NO
SIGNIFICANT WEATHER AND/OR OBSTRUCTIONS TO VISIBILITY.

COZ001>005-013-030-031-111500-
...NORTHWEST COLORADO...

CITY           SKY/WX    TMP DP  RH WIND       PRES   REMARKS
CRAIG          CLOUDY    37  35  92 NE3       30.11S
HAYDEN         CLOUDY    34  32  93 CALM      30.13R FOG
MEEKER         LGT SNOW  33  30  88 NE6       30.12R VSB 3/4 WCI  28
RANGELY        PTSUNNY   39  37  91 W6        30.14R
RABBIT EARS PA FAIR      25  25 100 CALM      30.14S FOG
STEAMBOAT SPGS CLOUDY    31  31 100 W3        30.10S
WALDEN         CLOUDY    31  27  85 S3        30.13S
$$

COZ006>008-011-111500-
...WEST CENTRAL VALLEYS...

CITY           SKY/WX    TMP DP  RH WIND       PRES   REMARKS
GRAND JUNCTION FAIR      47  35  63 E10       30.10R
MONTROSE       FAIR      43  32  65 S12       30.14R
EAGLE          CLOUDY    38  32  79 CALM      30.14S
RIFLE          PTSUNNY   39  35  86 W8        30.12S
DELTA          FAIR      46  36  67 CALM      30.13S
NUCLA          FAIR      40  31  69 E10       30.17R
$$

COZ017>023-064>068-111500-
...SOUTHWEST COLORADO...

CITY           SKY/WX    TMP DP  RH WIND       PRES   REMARKS
DURANGO        FAIR      43  21  41 CALM      30.11R
CORTEZ         FAIR      43  25  49 NE3       30.13R
PAGOSA SPRINGS FAIR      43  32  67 CALM      30.14R
TELLURIDE      FAIR      32  27  80 CALM      30.20R
WOLF CREEK PAS FAIR      23  21  93 SW14      30.25R WCI  11
$$

COZ009-010-012-014-032>034-037-058>063-111500-
...CENTRAL COLORADO...

CITY           SKY/WX    TMP DP  RH WIND       PRES   REMARKS
ASPEN          CLOUDY    34  27  75 CALM      30.11R HAZE
BUENA VISTA    PTSUNNY   32  26  76 SE12      30.15S WCI  23
COPPER MTN     FAIR      25  19  80 S5        30.17S WCI  19
BERTHOUD PASS  FAIR      16   3  57 SW10G20   30.15S WCI   3
DAKOTA HILL    CLOUDY    19  18  93 NW3       30.14S VSB<1/4
COTTONWOOD PAS FOG       30  30 100 CALM      30.15S VSB 1/2
GUNNISON       CLOUDY    35  28  75 CALM      30.16R
GRANBY         CLOUDY    29  26  90 CALM      30.14S
KREMMLING      NOT AVBL
LEADVILLE      CLOUDY    26  24  92 S7        30.13F WCI  18
MONARCH PASS   FOG      N/A N/A N/A SW18      30.27S VSB<1/4
SALIDA         CLOUDY    36  30  77 SE8       30.23R
SUNLIGHT         N/A     27  23  86 SW8       30.18S WCI  18
WILKERSON PASS FOG       23  21  93 S6        30.19S VSB 1/4 WCI  16
$$

COZ069>075-111500-
...SAN LUIS VALLEY/SANGRE DE CRISTO MOUNTAINS...

CITY           SKY/WX    TMP DP  RH WIND       PRES   REMARKS
ALAMOSA        CLOUDY    36  34  92 CALM      30.14R
DEL NORTE      CLOUDY    35  30  83 CALM      30.16R
LA VETA PASS   FAIR      28  28 100 CALM      30.17R
SAGUACHE       PTSUNNY   37  32  81 CALM      30.16R
$$

COZ035-036-038>040-111500-
...NORTHERN COLORADO FRONT RANGE...

CITY           SKY/WX    TMP DP  RH WIND       PRES   REMARKS
DENVER INTL AP CLOUDY    36  36 100 SW8       30.18S
AURORA         CLOUDY    34  34 100 SW6       30.19R WCI  29
WATKINS        NOT AVBL
ERIE           CLOUDY    34  34  99 N3        30.20R
BOULDER        CLOUDY    34  34 100 N6        30.19S FOG     WCI  29
CENTENNIAL     CLOUDY    34  31  88 VRB3      30.18S
BROOMFIELD     LGT SNOW  34  34 100 N5        30.19S WCI  30
FORT COLLINS   LGT RAIN  35  34  96 E5        30.22R VSB 1   WCI  31
LONGMONT       CLOUDY    37  36  93 N5        30.23R FOG
$$

COZ041-046-047-076>085-087-088-111500-
...PIKES PEAK/PALMER DIVIDE AND SOUTHERN FOOTHILLS...

CITY           SKY/WX    TMP DP  RH WIND       PRES   REMARKS
COLO. SPRINGS  CLOUDY    34  31  88 E3        30.19S
A. F. ACADEMY  CLOUDY    32  32  99 S7        30.16S WCI  26
SCHRIEVER AFB  NOT AVBL
CHEYENNE MTN   SNOWSHWR  29  29 100 CALM      30.13S VSB 1/8
ELLICOTT       CLOUDY    32  31  99 CALM      30.21F
FALCON         FOG       32  31  95 E9        30.19S VSB 1/2 WCI  24
FORT CARSON    NOT AVBL
LIMON          LGT SNOW  32  31  96 SE5       30.22R FOG     WCI  27
MONUMENT HILL  CLOUDY    30  30 100 SE5       30.19S WCI  25
CANON CITY     CLOUDY    36  36 100 SE3       30.19S
WALSENBURG     NOT AVBL
TRINIDAD       CLOUDY    34  31  88 N7        30.17S WCI  28
$$

COZ042>045-048>051-090-091-111500-
...NORTHEAST COLORADO...

CITY           SKY/WX    TMP DP  RH WIND       PRES   REMARKS
GREELEY        LGT RAIN  35  34  96 E12       30.22S WCI  27
AKRON          LGT SNOW  32  31  96 SE6       30.24R VSB 1   WCI  26
BURLINGTON     LGT SNOW  35  32  88 SE8       30.25R FOG     WCI  29
WRAY           DRIZZLE   41  41 100 E6        30.27S
YUMA           LGT RAIN  36  19  51 E5        30.26S
STERLING       LGT RAIN  37  37 100 S8        30.26R
HOLYOKE        LGT RAIN  43  41  93 E9        30.28S
FORT MORGAN    LGT SNOW  32  32  97 E8        30.25S VSB 3/4 WCI  25
$$

COZ086-089-092>099-111500-
...SOUTHEAST COLORADO...

CITY           SKY/WX    TMP DP  RH WIND       PRES   REMARKS
PUEBLO         CLOUDY    38  35  89 E6        30.21R
LA JUNTA       LGT SNOW  37  36  96 N14       30.21R FOG
LAMAR          NOT AVBL
SPRINGFIELD      N/A     40  38  93 E17       30.16F
$$



USA.gov is the U.S. government's official web portal to all federal, state and local government web resources and services.